Location: Peterborough
(44.3091°N, 78.3197°W)
Time: 17:25:55
(UTC-04:00)

Explorer 7 - Pass Details

Date: 26 March 2023
Orbit: 477 x 653 km, 50.3° (Epoch: 04 June)

Event Time Altitude Azimuth Distance (km) Brightness Sun altitude
Rises 23:07:47 0° 296° (WNW) 2,726 11.2 -34.8°
Reaches altitude 10° 23:10:06 10° 294° (WNW) 1,797 10.1 -35.1°
Enters shadow 23:10:21 12° 293° (WNW) 1,697 9.9 -35.1°
Maximum altitude 23:14:07 62° 213° (SSW) 585 - -35.6°
Drops below altitude 10° 23:17:54 10° 133° (SE) 1,696 - -36.0°
Sets 23:20:02 0° 130° (SE) 2,555 - -36.2°
